{"data":{"norad_id":61699,"epoch":"2026-09-21T21:22:03.071712Z","epoch_age_seconds":68095,"freshness":"FRESH","line1":"1 61699U 24195N   26264.89031333 -.00000773  00000+0 -15187-5 0  9997","line2":"2 61699  53.1594 138.7308 0001128  77.2578 282.8566 15.69708049109857","mean_motion":15.69708049,"eccentricity":0.0001128,"inclination_deg":53.1594,"raan_deg":138.7308,"arg_perigee_deg":77.2578,"mean_anomaly_deg":282.8566,"bstar":-1.5187e-6,"rev_number":10985,"period_min":91.736804236773,"perigee_km":358.97230177995,"apogee_km":360.49236510157,"semimajor_km":6737.8693334408,"source":"CELESTRAK","updated_at":"2026-09-22T09:00:49.408146Z"}}